Regional Weather Roundup
Issued by NWS

Home | Current Version | Previous Version | Text Only | Print | Product List | Glossary On
Versions: 1 2 3 4 5 6 7 8 9 10 11 12 13 14 15 16 17 18 19 20 21 22 23 24 25 26 27
000
ASUS45 KPSR 220010
RWRAZ

ARIZONA HOURLY REGIONAL WEATHER ROUNDUP
NATIONAL WEATHER SERVICE PHOENIX AZ
500 PM MST THU SEP 21 2017

NOTE: FAIR INDICATES FEW OR NO CLOUDS BELOW 12,000 FEET WITH NO
SIGNIFICANT WEATHER AND/OR OBSTRUCTIONS TO VISIBILITY.

AZZ001>003-036-220100-
NORTHWEST ARIZONA

CITY           SKY/WX    TMP DP  RH WIND       PRES   REMARKS
BULLHEAD CITY  SUNNY     93  39  15 SW16G25   29.54S
KINGMAN        SUNNY     80  38  22 S25G35    29.73R
6HR MIN TEMP:  80; 6HR MAX TEMP:  83;

$$

AZZ004>008-015-016-018-220100-
NORTH CENTRAL ARIZONA

CITY           SKY/WX    TMP DP  RH WIND       PRES   REMARKS
GRAND CANYON   SUNNY     68  31  25 SW31G41   29.88F
6HR MIN TEMP:  67; 6HR MAX TEMP:  73;

WILLIAMS       SUNNY     66  28  24 S16G37    29.92F
PRESCOTT       SUNNY     74  38  27 S15G25    29.87S
6HR MIN TEMP:  73; 6HR MAX TEMP:  76;

FLAGSTAFF      SUNNY     64  27  24 SW21G38   29.95F
6HR MIN TEMP:  63; 6HR MAX TEMP:  69;

PAYSON           N/A     75  32  20 SW17G30   29.91S
PAGE           SUNNY     83  26  12 SW15G29   29.65S
6HR MIN TEMP:  79; 6HR MAX TEMP:  86;

$$

AZZ009>014-017-220100-
NORTHEAST ARIZONA

CITY           SKY/WX    TMP DP  RH WIND       PRES   REMARKS
WINSLOW        SUNNY     80  26  13 S29G41    29.84F
6HR MIN TEMP:  80; 6HR MAX TEMP:  85;

SAINT JOHNS    SUNNY     80  37  21 SW17G28   29.92S
6HR MIN TEMP:  78; 6HR MAX TEMP:  83;

WINDOW ROCK    MOSUNNY   75  29  18 S20G38    29.97S
6HR MIN TEMP:  74; 6HR MAX TEMP:  79;

SHOW LOW       SUNNY     73  37  27 S23G35    29.98S
$$

AZZ540-542>544-546-548-220100-
GREATER PHOENIX AREA

CITY           SKY/WX    TMP DP  RH WIND       PRES   REMARKS
PHOENIX        MOSUNNY   96  34  11 SW15G28   29.63F
6HR MIN TEMP:  88; 6HR MAX TEMP:  98;

BUCKEYE        SUNNY     93  39  15 S12G18    29.65S
GLENDALE       MOSUNNY   97  36  11 S13G22    29.65F
LUKE AFB       SUNNY     94  38  14 SW17      29.63S
DEER VALLEY    SUNNY     93  41  16 SW14G22   29.65F
6HR MIN TEMP:  85; 6HR MAX TEMP:  94;

SCOTTSDALE     SUNNY     95  37  13 SW16      29.67F
6HR MIN TEMP:  86; 6HR MAX TEMP:  95;

MESA-FALCON    SUNNY     95  41  15 SW12G21   29.66F
MESA-GATEWAY   SUNNY     95  43  16 SW12G22   29.67F
CHANDLER       SUNNY     97  34  11 SW22      29.65F
$$

AZZ539-553-220100-
SOUTHWEST MARICOPA COUNTY AND PINAL COUNTY

CITY           SKY/WX    TMP DP  RH WIND       PRES   REMARKS
CASA GRANDE    NOT AVBL
GILA BEND      SUNNY     94  27   9 S20G26    29.64S
6HR MIN TEMP:  91; 6HR MAX TEMP:  98;

$$

AZZ503-504-507>509-220100-
SOUTHEAST ARIZONA

CITY           SKY/WX    TMP DP  RH WIND       PRES   REMARKS
TUCSON         MOSUNNY   94  42  16 SW13G21   29.78F
6HR MIN TEMP:  89; 6HR MAX TEMP:  96;

DAVIS-MONTHAN  MOSUNNY   93  43  17 SW10G25   29.77S
6HR MIN TEMP:  89; 6HR MAX TEMP:  96;

RYAN FIELD     SUNNY     93  45  18 SW20G29   29.77S
NOGALES        SUNNY     87  39  18 S14G30    29.89F
6HR MIN TEMP:  86; 6HR MAX TEMP:  91;

SIERRA VISTA   SUNNY     84  39  20 SW15G24   29.95F
6HR MIN TEMP:  84; 6HR MAX TEMP:  88;

DOUGLAS        SUNNY     88  36  15 SW22G29   29.90S
6HR MIN TEMP:  86; 6HR MAX TEMP:  91;

SAFFORD        CLOUDY    93  39  15 SW12      29.76F
6HR MIN TEMP:  87; 6HR MAX TEMP:  95;

$$

AZZ532-220100-
SOUTHWEST ARIZONA

CITY           SKY/WX    TMP DP  RH WIND       PRES   REMARKS
YUMA           SUNNY     89  48  24 NW14      29.64S
6HR MIN TEMP:  86; 6HR MAX TEMP:  94;

$$

CAZ041-043-047-048-061-525>527-560>570-220100-
SOUTHERN CALIFORNIA

CITY           SKY/WX    TMP DP  RH WIND       PRES   REMARKS
DOWNTOWN L.A.  SUNNY     70  53  54 MISG      29.81S
6HR MIN TEMP:  69; 6HR MAX TEMP:  73;

L.A. AIRPORT   MOSUNNY   68  57  68 SW15      29.81F
6HR MIN TEMP:  68; 6HR MAX TEMP:  71;

SAN DIEGO      MOSUNNY   71  54  54 W10       29.87S
6HR MIN TEMP:  67; 6HR MAX TEMP:  74; 6HR PCP: TRACE;

BURBANK        SUNNY     68  48  48 S12       29.80S
6HR MIN TEMP:  66; 6HR MAX TEMP:  72;

ONTARIO        PTSUNNY   69  51  52 SW13      29.81F
6HR MIN TEMP:  68; 6HR MAX TEMP:  71;

RIVERSIDE      PTSUNNY   72  52  49 SW15      29.81S
6HR MIN TEMP:  70; 6HR MAX TEMP:  75;

PALM SPRINGS   SUNNY     85  45  24 N16G24    29.68R
6HR MIN TEMP:  82; 6HR MAX TEMP:  88;

EL CENTRO NAS  MOSUNNY   83  49  30 W36       29.71R
6HR MIN TEMP:  83; 6HR MAX TEMP:  91;

IMPERIAL       SUNNY     83  54  36 W30G38    29.65R
6HR MIN TEMP:  83; 6HR MAX TEMP:  89;

BLYTHE         SUNNY     89  46  22 SW25G32   29.64R
6HR MIN TEMP:  88; 6HR MAX TEMP:  93;

NEEDLES        SUNNY     94  37  13 SW21G26   29.57S
6HR MIN TEMP:  89; 6HR MAX TEMP:  97;

$$

NVZ020-UTZ003-220100-
SOUTHERN NEVADA-UTAH

CITY           SKY/WX    TMP DP  RH WIND       PRES   REMARKS
LAS VEGAS      MOSUNNY   77  47  34 SW20G37   29.64R
6HR MIN TEMP:  77; 6HR MAX TEMP:  82;

SALT LAKE CITY CLOUDY    51  41  68 NW15      29.75R
6HR MIN TEMP:  50; 6HR MAX TEMP:  58;

$$

NMZ009-TXZ055-220100-
NEW MEXICO-WEST TEXAS

CITY           SKY/WX    TMP DP  RH WIND       PRES   REMARKS
ALBUQUERQUE    MOSUNNY   85  36  17 S20       29.88F
6HR MIN TEMP:  77; 6HR MAX TEMP:  86;

EL PASO        MOSUNNY   91  43  18 S8        29.88S
6HR MIN TEMP:  86; 6HR MAX TEMP:  94;

$$


........................KEY........................
SKY/WX - SKY CONDITION/WEATHER
TMP    - TEMPERATURE IN FAHRENHEIT
DP     - DEW POINT IN FAHRENHEIT
RH     - RELATIVE HUMIDITY IN PERCENT
WIND   - DIRECTION AND SPEED IN MILES PER HOUR (MPH)
VRB    - VARIABLE WIND DIRECTION
PRES   - MEAN SEA LEVEL PRESSURE IN INCHES OF MERCURY
         F - FALLING PRESSURE   R - RISING PRESSURE
         S - STEADY PRESSURE
VSB    - VISIBILITY IN MILES
HX     - HEAT INDEX IN FAHRENHEIT
WCI    - WIND CHILL INDEX IN FAHRENHEIT
TC     - TEMPERATURE IN CELSIUS WHICH IS ALSO KNOWN AS
         TEMPERATURE IN CENTIGRADE
AFB    - AIR FORCE BASE
         LUKE AFB IS LUKE AIR FORCE BASE
         DAVIS-MONTHAN IS DAVIS-MONTHAN AIR FORCE BASE
NAS    - NAVAL AIR STATION
         EL CENTRO NAS IS EL CENTRO NAVAL AIR STATION
N/A    - NOT AVAILABLE





USA.gov is the U.S. government's official web portal to all federal, state and local government web resources and services.